星链-31692 (STARLINK-31692 )

导读

STARLINK-31692是美国太空探索技术公司于2024年4月23日发射的一颗星链卫星,属于星链星座组网的一员。星链项目旨在构建全球卫星互联网系统,为全球提供高速网络服务,该卫星的发射进一步扩充了星链星座的规模,助力提升星座的覆盖能力与服务稳定性。

Basic Information
目录编号:
59577
目录名称:
STARLINK-31692
国际标识:
2024-076P
轨道中心:
EARTH
卫星名称:
星链-31692
卫星全名:
星链-31692 (STARLINK-31692 )
卫星状态:
在轨 (已飞行872 天)
发射日期:
2024-04-23 UTC
国别 :
美国 (US)
星等 :
--
This satellite is enrolled in the Space Conjunction Data Service (SCDS) and the current flight risk assessment level is: No High Risk
Orbit Information
数据来源 国际轨道数据
星历时间: 2026-09-12T00:36:37+0800
9小时前
查看轨道信息
半长轴: 6813.493km
偏心率: 0.0017457
轨道倾角: 42.998°
近地点辐角 321.881°
升交点赤经 29.490°
平近点角 38.081°
近地点: 423.461km
远地点: 447.251km
周期: 93.286分钟
每日圈数: 15.436472
Detailed Information
固有亮度:
5
最大亮度:
1.5
卫星平台:
Starlink v2.0 mini
覆盖范围:
全球
运营商:
太空探索技术公司
运营商所在国:
美国
制造商(研发单位):
太空探索技术公司
制造商所在国:
美国
使用方式:
暂无
Satellite Introduction
星链(Starlink)计划是由太空探索技术公司(SpaceX)提出的一个巨型低轨卫星互联网星座项目,计划在2019年至2024年间在太空搭建由约1.2万颗卫星组成的“星链”网络,其中1584颗将部署在地球上空550千米处的近地轨道,并从2020年开始工作。该卫星仍在工作。
2D Orbit Map
3D Orbit Map
Orbit Altitude Analysis Chart
Orbit Inclination Analysis Chart
Orbit Comprehensive Analysis Chart
View Comprehensive Chart
Conjunction Data List
Event ID Objects TCA Miss Dist (km) Collision Risk Probability Collision Risk Index (CRI) Action
CDM_260912-051505-291305-957725
2026-09-12T
05:15:26+0000
1.806 km
极远距离
3.616547E-6 低风险 0.46
CDM_260912-075304-506105-957721
2026-09-12T
07:53:10+0000
2.086 km
极远距离
1.837314E-6 低风险 0.4
CDM_260913-184805-507605-957721
YAM-5 (55076)
2026-09-13T
18:48:52+0000
2.138 km
极远距离
1.818271E-6 低风险 0.4
CDM_260911-235004-558005-957722
2026-09-11T
23:50:15+0000
2.379 km
极远距离
1.42629E-6 低风险 0.38
Miss Distance Evolution Trend with All Objects
Collision Probability Evolution Trend with All Objects